Flag for Canada Weather past 2 weeks in Rainy River, Ontario, Canada

Now
82 °F

Passing clouds.


Feels Like: 84 °F
Forecast: 64 / 78 °F
Wind: 10 mph from South

Location: Baudette International Airport

Current Time: Jul 27, 2015 at 8:38:12 PM

Latest Report: Jul 27, 2015 at 7:53 PM


Visibility: 10 mi

Pressure: 29.83 "Hg

Humidity: 60%

Dew point: 67 °F

Location of Rainy RiverLocation

Historic Weather in Rainy River — Graph

°F

Rainy River temperature yesterday

Maximum temperature yesterday: 89 °F (at 3:53 PM)
Minimum temperature yesterday: 63 °F (at 4:53 AM)
Average temperature yesterday: 76 °F

Past Weeks' High & Low Weather Summary

 TemperatureHumidityPressure
High89 °F (Jul 26, 3:53 PM)97% (Jul 16, 4:53 AM)29.97 "Hg (Jul 16, 4:53 AM)
Low50 °F (Jul 22, 5:53 AM)41% (Jul 19, 3:53 PM)29.55 "Hg (Jul 19, 6:53 PM)
Average70 °F75%29.80 "Hg
* Reported Jul 12 6:53 PM — Jul 27 6:53 PM, Rainy River, Weather by CustomWeather, © 2015

Note: Actual official high and low records may vary slightly from our data, if they occured in-between our weather recording intervals... More about our weather records

Advertising

Rainy River weather history for previous 24 hours

 ConditionsComfort  
Time TempWeatherWind HumidityBarometerVisibility
6:53 PM
Mon, Jul 27
83 °FSunny.12 mph59%29.84 "Hg10 mi
5:53 PM87 °FSunny.10 mph50%29.85 "Hg10 mi
4:53 PM87 °FSunny.8 mph48%29.86 "Hg10 mi
3:53 PM87 °FPassing clouds.10 mph50%29.88 "Hg10 mi
2:53 PM88 °FPassing clouds.10 mph43%29.88 "Hg10 mi
1:53 PM86 °FScattered clouds.10 mph49%29.90 "Hg10 mi
12:53 PM85 °FScattered clouds.7 mph55%29.90 "Hg10 mi
11:53 AM83 °FPassing clouds.9 mph59%29.91 "Hg10 mi
10:53 AM82 °FPassing clouds.5 mph63%29.92 "Hg10 mi
9:53 AM78 °FSunny.5 mph71%29.93 "Hg10 mi
8:53 AM75 °FSunny.6 mph79%29.94 "Hg10 mi
7:53 AM70 °FSunny.6 mph87%29.94 "Hg10 mi
6:53 AM68 °FSunny.No wind90%29.92 "Hg10 mi
5:53 AM65 °FClear.3 mph91%29.92 "Hg10 mi
4:53 AM66 °FClear.3 mph96%29.91 "Hg10 mi
3:53 AM66 °FClear.3 mph93%29.91 "Hg10 mi
2:53 AM67 °FClear.5 mph87%29.91 "Hg10 mi
1:53 AM66 °FClear.No wind90%29.91 "Hg10 mi
12:53 AM67 °FClear.3 mph90%29.92 "Hg10 mi
11:53 PM
Sun, Jul 26
70 °FClear.3 mph81%29.91 "Hg10 mi
10:53 PM70 °FClear.5 mph84%29.90 "Hg10 mi
9:53 PM73 °FSunny.No wind74%29.91 "Hg10 mi
8:53 PM77 °FSunny.3 mph64%29.89 "Hg10 mi
Weather by CustomWeather, © 2015

See weather overviewHow to use our weather pages